www.pogodaiklimat.ru

Погода и климат >> Архив погоды >> Австралия >> Северная территория >> Дерби


ПОГОДА в Дерби

  • Прогноз погоды в Дерби
  • Монитор погоды в Дерби

АРХИВ ПОГОДЫ в Дерби

Время (UTC), дата Ветер
(напр.,м/с)
 
Видим.   Явления Облачность Т
(С)
Тd
(С)
f
(%)
Тe
(С)
Тes
(С)
Комфортность P
(гПа)
Po
(гПа)
Тmin
(С)
Tmax
(С)
R
(мм)
R24
(мм)
S
(см)
07 12.08 З 7 н/о н/о +31.5 +10.2 27 +31 +31 жарко 1013.8 1013.0
09 12.08 З 5 н/о н/о +30.1 +10.6 30 +30 +30 жарко 1014.1 1013.3
10 12.08 З 3 н/о н/о +26.1 +10.7 38 +27 +27 жарко 1014.9 1014.1
12 12.08 С 3 н/о н/о +22.8 +11.5 49 +25 +25 комфорт 1016.5 1015.7
13 12.08 В 1 н/о н/о +21.5 +10.6 50 +23 +23 комфорт 1017.2 1016.4 +32.9
15 12.08 СЗ 1 н/о н/о +22.1 +3.7 30 +22 +22 комфорт 1016.9 1016.1
16 12.08 ЮВ 3 н/о н/о +23.4 -0.1 21 +22 +22 комфорт 1016.8 1016.0
18 12.08 штиль 0 н/о н/о +16.8 +2.8 39 +17 +17 1016.5 1015.7
19 12.08 штиль 0 н/о н/о +15.1 +3.0 44 +15 +15 1016.5 1015.7
21 12.08 ЮВ 3 н/о н/о +14.9 +1.1 39 +15 +15 1016.7 1015.9
22 12.08 ЮВ 3 н/о н/о +15.2 -0.1 35 +15 +15 1017.4 1016.6
00 13.08 Ю 3 н/о н/о +21.6 +0.8 25 +21 +21 комфорт 1018.6 1017.8
01 13.08 СВ 6 н/о н/о +27.9 -3.0 13 +25 +25 комфорт 1019.0 1018.2 +14.1
03 13.08 В 5 н/о н/о +30.4 -3.3 11 +27 +27 жарко 1017.9 1017.1
04 13.08 ЮВ 5 н/о н/о +30.9 -3.0 11 +27 +27 жарко 1016.9 1016.1
09 13.08 СЗ 5 н/о н/о +28.8 +3.6 20 +27 +27 жарко 1015.0 1014.2
10 13.08 СЗ 3 н/о н/о +24.6 +7.3 33 +25 +25 комфорт 1015.6 1014.8
12 13.08 С 2 н/о н/о +20.4 +12.4 60 +23 +23 комфорт 1017.0 1016.2
13 13.08 В 2 н/о н/о +18.8 +10.6 59 +20 +20 1017.4 1016.6 +32.7
15 13.08 В 2 н/о н/о +19.7 +8.7 49 +21 +21 комфорт 1017.4 1016.6
16 13.08 СВ 1 н/о н/о +18.4 +5.6 43 +20 +20 1017.3 1016.5
18 13.08 СВ 3 н/о н/о +17.7 +8.3 54 +18 +18 1016.8 1016.0
19 13.08 Ю 3 н/о н/о +15.8 +6.5 54 +16 +16 1017.0 1016.2
21 13.08 ЮВ 4 н/о н/о +16.2 -0.1 33 +16 +16 1017.6 1016.8
22 13.08 ЮВ 4 н/о н/о +15.0 -1.1 33 +14 +14 1018.2 1017.4
00 14.08 ЮВ 3 н/о н/о +21.4 -1.2 22 +21 +21 комфорт 1019.7 1018.9
01 14.08 СВ 4 н/о н/о +25.4 +2.2 22 +24 +24 комфорт 1019.8 1019.0 +14.2
03 14.08 СВ 6 н/о н/о +28.3 +8.6 29 +28 +28 жарко 1018.6 1017.8
04 14.08 С 4 н/о н/о +30.0 +8.4 26 +29 +29 жарко 1017.3 1016.5
06 14.08 СЗ 6 н/о н/о +29.1 +9.8 30 +29 +29 жарко 1015.3 1014.5
07 14.08 СЗ 7 н/о н/о +28.8 +10.9 33 +29 +29 жарко 1014.7 1013.9
09 14.08 СЗ 6 н/о н/о +27.2 +10.0 34 +28 +28 жарко 1014.6 1013.8
10 14.08 С 1 н/о н/о +24.5 +9.6 39 +25 +25 комфорт 1015.0 1014.2
12 14.08 С 2 н/о н/о +20.3 +12.8 62 +23 +23 комфорт 1016.9 1016.1
13 14.08 С 2 н/о н/о +20.6 +19.1 91 +25 +25 комфорт 1017.2 1016.4 +31.3
15 14.08 СЗ 3 н/о н/о +20.3 +16.3 78 +24 +24 комфорт 1017.3 1016.5
16 14.08 С 2 н/о н/о +19.2 +16.2 83 +22 +22 комфорт 1017.1 1016.3
18 14.08 Ю 4 н/о н/о +15.9 +12.3 79 +15 +15 1016.9 1016.1
19 14.08 Ю 3 н/о н/о +16.4 +11.6 73 +16 +16 1016.9 1016.1
21 14.08 ЮВ 3 н/о н/о +16.4 +10.9 70 +16 +16 1017.2 1016.4
22 14.08 ЮВ 2 н/о н/о +14.8 +10.0 73 +15 +15 1017.6 1016.8
00 15.08 СВ 2 н/о н/о +19.9 +14.0 69 +22 +22 комфорт 1019.3 1018.5
01 15.08 СЗ 3 н/о н/о +22.5 +14.4 60 +26 +26 жарко 1019.8 1019.0 +13.9
16 15.08 0 н/о н/о +18.7 +12.9 69 1017.1 1016.3
21 15.08 Ю 3 н/о н/о +16.1 +11.3 73 +16 +16 1016.3 1015.5
00 16.08 Ю 3 н/о н/о +19.1 +16.0 82 +21 +21 комфорт 1017.6 1016.8
01 16.08 Ю 5 н/о н/о +23.3 +16.8 67 +28 +28 душно 1017.8 1017.0
03 16.08 Ю 5 н/о н/о +29.5 +10.6 31 +30 +30 жарко 1016.7 1015.9
04 16.08 ЮЗ 3 н/о н/о +30.9 +7.4 23 +30 +30 жарко 1015.7 1014.9
06 16.08 З 4 н/о н/о +32.2 +4.9 18 +30 +30 жарко 1014.0 1013.2
07 16.08 СЗ 6 н/о н/о +31.3 +7.7 23 +30 +30 жарко 1013.7 1012.9
09 16.08 С 6 н/о н/о +30.1 -0.3 14 +27 +27 жарко 1013.9 1013.1
10 16.08 С 4 н/о н/о +26.5 +3.1 22 +25 +25 комфорт 1014.4 1013.6
12 16.08 СЗ 4 н/о н/о +23.7 +13.6 53 +26 +26 жарко 1015.7 1014.9
13 16.08 СЗ 5 н/о н/о +23.5 +17.0 67 +27 +27 душно 1016.0 1015.2
15 16.08 З 3 н/о н/о +21.3 +15.8 71 +25 +25 комфорт 1016.3 1015.5
18 16.08 ЮЗ 5 н/о н/о +20.6 +15.2 71 +23 +23 комфорт 1015.3 1014.5
19 16.08 Ю 3 н/о н/о +19.9 +15.3 75 +22 +22 комфорт 1015.2 1014.4
21 16.08 Ю 5 н/о н/о +19.4 +14.9 75 +21 +21 комфорт 1015.4 1014.6
22 16.08 Ю 3 н/о н/о +17.9 +13.0 73 +18 +18 1015.8 1015.0
00 17.08 ЮВ 4 н/о н/о +22.2 +12.7 55 +25 +25 комфорт 1016.9 1016.1
01 17.08 ЮВ 5 н/о н/о +27.1 +9.5 33 +27 +27 жарко 1017.3 1016.5
03 17.08 Ю 6 н/о н/о +30.6 +7.1 23 +29 +29 жарко 1016.5 1015.7
04 17.08 Ю 6 н/о н/о +31.6 +7.3 22 +30 +30 жарко 1015.9 1015.1
06 17.08 ЮЗ 4 н/о н/о +32.6 +6.7 20 +31 +31 жарко 1014.2 1013.4
07 17.08 Ю 3 н/о н/о +32.5 +5.1 18 +30 +30 жарко 1014.0 1013.2
09 17.08 Ю 4 н/о н/о +31.6 +6.6 21 +30 +30 жарко 1014.1 1013.3
10 17.08 ЮЗ 3 н/о н/о +28.7 +6.1 24 +28 +28 жарко 1014.5 1013.7
12 17.08 ЮВ 2 н/о н/о +22.0 +4.6 32 +22 +22 комфорт 1016.2 1015.4
13 17.08 З 5 н/о н/о +24.1 +11.8 46 +26 +26 жарко 1016.8 1016.0
15 17.08 ЮЗ 5 н/о н/о +22.0 +7.0 38 +23 +23 комфорт 1017.3 1016.5
16 17.08 Ю 4 н/о н/о +20.8 +7.4 42 +22 +22 комфорт 1017.3 1016.5
18 17.08 Ю 4 н/о н/о +18.1 +6.0 45 +18 +18 1016.4 1015.6
19 17.08 Ю 4 н/о н/о +17.3 +3.2 39 +17 +17 1016.3 1015.5
21 17.08 В 2 н/о н/о +17.2 -1.4 28 +18 +18 1016.8 1016.0
22 17.08 штиль 0 н/о н/о +15.0 -1.1 33 +15 +15 1017.4 1016.6
00 18.08 ЮВ 9 н/о н/о +23.9 -1.8 18 +22 +22 комфорт 1018.2 1017.4
01 18.08 ЮВ 9 н/о н/о +25.6 -2.1 16 +24 +24 комфорт 1018.4 1017.6 +14.6
03 18.08 ЮВ 7 н/о н/о +28.5 -1.6 14 +26 +26 жарко 1017.6 1016.8
04 18.08 ЮВ 9 н/о н/о +30.0 -1.4 13 +27 +27 жарко 1016.6 1015.8
06 18.08 ЮВ 8 н/о н/о +30.8 +0.2 14 +28 +28 жарко 1014.7 1013.9
07 18.08 Ю 7 н/о н/о +31.5 +0.8 14 +29 +29 жарко 1014.2 1013.4
09 18.08 ЮВ 7 н/о н/о +30.3 -1.2 13 +27 +27 жарко 1014.6 1013.8
10 18.08 ЮВ 5 н/о н/о +27.9 -1.1 15 +25 +25 комфорт 1015.4 1014.6
12 18.08 ЮВ 4 н/о н/о +22.4 -1.0 21 +21 +21 комфорт 1017.0 1016.2
13 18.08 ЮВ 4 н/о н/о +21.2 -1.3 22 +21 +21 комфорт 1017.5 1016.7 +32.8
15 18.08 Ю 4 н/о н/о +19.5 -3.4 21 +19 +19 1017.6 1016.8
16 18.08 Ю 5 н/о н/о +20.3 -4.0 19 +20 +20 1017.7 1016.9
18 18.08 ЮВ 6 н/о н/о +21.4 -5.4 16 +20 +20 1017.2 1016.4
19 18.08 ЮВ 5 н/о н/о +20.1 -5.7 17 +20 +20 1017.3 1016.5
21 18.08 ЮВ 4 н/о н/о +17.5 -5.0 21 +17 +17 1018.2 1017.4
22 18.08 ЮВ 5 н/о н/о +16.8 -5.6 21 +16 +16 1018.5 1017.7
00 19.08 ЮВ 7 н/о н/о +22.1 -5.7 15 +21 +21 комфорт 1018.9 1018.1
01 19.08 ЮВ 8 н/о н/о +24.5 -5.7 13 +22 +22 комфорт 1018.8 1018.0 +16.8
03 19.08 ЮВ 7 н/о н/о +28.3 -6.2 10 +25 +25 комфорт 1017.8 1017.0
06 19.08 ЮВ 8 н/о н/о +31.5 -5.2 9 +28 +28 жарко 1015.1 1014.3
07 19.08 Ю 6 н/о н/о +32.2 -4.6 9 +28 +28 жарко 1014.5 1013.7

 

Местоположение метеостанции Дерби (Северная территория, Австралия): широта -17.36 долгота 123.66 высота над уровнем моря 7 м.

В архиве по умолчанию представлена погода в Дерби за последнюю неделю. Архивные данные за месяц целиком и за предыдущие месяцы, начиная с января 2011 года, Вы можете получить, выбрав интересующий диапазон дат из раскрывающегося списка и нажав кнопку "Ввод!".


*Определитесь, кто Вы:
робот инопланетянин человек

Внимание! Время в таблицах - всемирное. Для получения местного времени необходимо прибавить поправку, которая равна 9.5 ч.

Смотрите также архив погоды в соседних городах и на ближайших метеорологических станциях:

Погода на Базе ВВС Curtin (Западная Австралия, Австралия) (30 км)
Погода в Робак Запад (Западная Австралия, Австралия) (154 км)
Погода в Бруме (Западная Австралия, Австралия) (165 км)
Погода на Острове Адель (Западная Австралия, Австралия) (213 км)
Погода в Фицрой-Кроссинге (Западная Австралия, Австралия) (221 км)
Погода на Острове Брауз (Западная Австралия, Австралия) (362 км)
Погода в Мандоре (Западная Австралия, Австралия) (397 км)
Погода в Холс Крик (Западная Австралия, Австралия) (435 км)
Погода в Трускотте (Западная Австралия, Австралия) (467 км)
Погода в Калумбуру (Западная Австралия, Австралия) (467 км)

Пояснения к столбцам:

Ветер - указаны скорость ветра в м/с - средняя за 10 мин, порывы в срок и между сроками (в фигурных скобках) и направление, откуда дует ветер: С - северный, СВ - северо-восточный, В - восточный, ЮВ - юго-восточный, Ю - южный, ЮЗ - юго-западный, З - западный, СЗ - северо-западный.
Видимость - горизонтальная дальность видимости в метрах или километрах. При видимости от 1 до 10 км при отсутствии осадков обычно наблюдается дымка, при ухудшении видимости до 1 км и менее - туман. В сухую погоду видимость может ухудшаться дымом, пылью или мглою.
Явления - указаны атмосферные явления, наблюдавшиеся в срок или в последний час перед сроком; фигурными скобками обозначены явления, наблюдавшиеся между сроками (за 1-3 часа до срока); квадратными скобками обозначены град или гололедные отложения с указанием их диаметра в мм.
Облачность - указаны через наклонную черту общая и нижняя облачность в баллах и высота нижней границы облаков в метрах; квадратными скобками обозначены формы облаков: Ci - перистые, Cs - перисто-слоистые, Cc - перисто-кучевые, Ac - высококучевые, As - высокослоистые, Sc - слоисто-кучевые, Ns - слоисто-дождевые, Cu - кучевые, Cb - кучево-дождевые. Подробнее классификацию облаков см. в Атласе облаков (PDF).
T - Температура воздуха - температура, измеренная на высоте 2 м над землей.
Td - Температура точки росы - температура, при понижении до которой содержащийся в воздухе водяной пар достигнет насыщения.
f - Относительная влажность воздуха - влажноcть воздуха, измеренная на высоте 2 м над землей.
Te - Эффективная температура - температура, которую ощущает одетый по сезону человек в тени. Характеристика душности погоды. При расчете учитывается влияние влажности воздуха и скорости ветра на теплоощущения человека.
Tes - Эффективная температура на солнце - температура, которую ощущает человек, с поправкой на солнечный нагрев. Характеристика знойности погоды. Зависит от высоты солнца над горизонтом, облачности и скорости ветра. Ночью, в пасмурную погоду, а также при ветре 12 м/с и более поправка равна нулю.
P - Атмосферное давление - приведенное к уровню моря атмосферное давление.
Po - Атмосферное давление - измеренное на уровне метеостанции атмосферное давление.
Tmin - Минимальная температура - минимум температуры воздуха на высоте 2 м над землей.
Tmax - Максимальная температура - максимум температуры воздуха на высоте 2 м над землей.
R - Количество осадков - Количество выпавших осадков за период времени, мм. При наведении курсора мыши на число - период времени, за который выпало указанное количество осадков.
R24 - Количество осадков - Количество выпавших осадков за 24 часа, мм.
S - Снежный покров - Высота снежного покрова, см. При наведении курсора мыши на число - состояние снежного покрова и степень покрытия местности в баллах.